Location: Cauffry
(49.3198°N, 2.4458°E)
Time: 13:12:07
(UTC+00:00)

Daily predictions for brighter satellites

Satellite Brightness Start Highest point End
(mag) Time Altitude Azimuth Time Altitude Azimuth Time Altitude Azimuth
Cosmos 2344 4.5 20:26:43 10° NW 20:35:08 64° NE 20:46:40 10° ESE
TSX-5 4.5 20:34:03 10° SSW 20:38:37 68° ESE 20:44:36 10° NE
SPOT 1/Viking Rocket 4.0 20:36:34 10° S 20:41:40 64° WSW 20:46:50 10° NNW
COSMOS 2406 4.2 20:38:53 10° SSE 20:43:37 27° ESE 20:48:21 10° NE
Cosmos 2154 Rocket 4.4 20:37:37 10° N 20:43:39 49° ENE 20:49:38 10° SSE
X-37B 1.3 20:41:45 10° WSW 20:44:16 30° S 20:46:48 10° SE
Spot 2 Rocket 3.9 20:39:33 10° SE 20:44:29 54° ENE 20:49:29 10° N
Cosmos 1025 Rocket 4.1 20:41:13 10° SSW 20:45:21 47° WNW 20:49:33 10° N
SPOT 5 2.8 20:50:08 10° SSE 20:54:26 60° ENE 20:58:42 10° N
Cosmos 2084 Rocket 3.6 20:52:09 10° NW 20:56:00 59° NE 20:59:59 10° SE
Cosmos 1703 3.3 20:52:43 10° S 20:56:30 60° E 21:00:19 10° NNE
RESURS DK-1 2.6 20:52:57 10° NW 20:57:04 67° WSW 21:01:10 10° SSE
Cosmos 1452 Rocket 3.5 20:54:02 10° SSW 20:59:17 82° ESE 21:04:35 10° NNE
Cosmos 1833 Rocket 2.8 20:54:02 10° S 20:59:29 56° ESE 21:04:59 10° NE
Terra 2.2 20:56:33 10° SE 21:01:08 50° ENE 21:05:46 10° N
CZ-4B R/B 2.2 20:58:50 10° N 21:01:37 43° WNW 21:04:22 10° SW
Helios 1A Rocket 3.0 21:01:09 10° SSE 21:05:12 70° ENE 21:09:19 10° N
FALCON 9 DEB 3.9 21:02:06 10° WNW 21:05:17 47° N 21:08:28 10° E
Cosmos 1110 Rocket 4.1 21:00:07 10° S 21:05:18 61° ESE 21:10:33 10° NNE
Cosmos 2322 Rocket 4.4 21:03:48 10° N 21:07:33 18° NE 21:11:17 10° ENE
ERS-1 Rocket 3.0 21:02:40 10° SSE 21:07:41 73° ENE 21:12:42 10° N
Resurs 01 Rocket 3.4 21:04:28 10° SSW 21:08:20 29° W 21:12:14 10° NW
Cosmos 2228 3.0 21:06:46 10° N 21:11:02 85° ENE 21:15:15 10° S
Cosmos 2058 Rocket 4.3 21:07:59 10° N 21:11:51 29° ENE 21:15:19 12° SE
Cosmos 2184 Rocket 4.1 21:08:46 10° NNW 21:14:57 79° W 21:21:10 10° S
Cosmos 1825 4.4 21:15:36 10° E 21:16:43 11° E 21:17:50 10° ENE
Lacrosse 5 4.0 21:14:09 10° W 21:17:16 16° WSW 21:20:21 10° SSW
Cosmos 1408 4.0 21:16:14 14° SE 21:18:09 21° E 21:20:47 10° NE
Cosmos 968 Rocket 3.8 21:17:03 10° NNW 21:22:13 59° ENE 21:26:36 14° SE
Cosmos 1328 4.0 21:22:05 11° S 21:25:47 55° E 21:29:41 10° NNE
USA 276 2.1 21:24:13 10° W 21:27:14 75° N 21:30:17 10° E
H-2A R/B 4.5 21:26:53 10° N 21:30:31 25° WNW 21:34:11 10° WSW
SJ 16-02 3.7 21:28:49 10° NNE 21:31:09 14° NE 21:33:28 10° E
Cosmos 1867 3.7 21:26:25 10° NW 21:31:55 73° NE 21:36:30 15° SE
Cosmos 2082 Rocket 2.6 21:27:56 10° S 21:33:20 45° ESE 21:38:44 10° NE
USA 267 4.0 21:31:31 10° ENE 21:37:06 29° SE 21:42:39 10° S
ARIANE 5 R/B 2.6 21:35:43 16° SSE 21:39:18 83° ENE 21:43:44 10° NNW
Cosmos 1606 Rocket 3.6 21:35:25 10° NNW 21:39:45 75° W 21:43:23 14° S
GP-B 3.8 21:36:35 10° NNE 21:40:46 38° E 21:43:35 18° SE
Cosmos 2341 Rocket 4.2 21:35:46 10° N 21:42:03 63° ENE 21:47:01 17° SSE
Cosmos 2360 Rocket 4.3 21:39:34 10° N 21:43:41 20° NE 21:47:48 10° E
Meteor 1-21 Rocket 4.4 21:38:26 10° SSW 21:44:02 78° WNW 21:49:47 10° N
Cosmos 192 4.3 21:43:37 10° SSW 21:48:29 73° ESE 21:53:24 10° NNE
Okean 1-7 Rocket 4.3 21:58:40 21° SE 22:01:05 38° E 22:05:15 10° NNE
SAR-Lupe-1 4.3 21:58:18 10° NNE 22:01:49 51° ESE 22:03:39 25° SSE
Cosmos 1726 Rocket 4.0 21:58:12 10° NNW 22:02:26 57° W 22:05:41 17° S
Cosmos 1892 2.7 22:02:06 23° S 22:04:17 63° E 22:08:02 10° NNE
Cosmos 2181 Rocket 4.1 22:07:21 19° SSE 22:11:50 62° E 22:18:00 10° NNE
USA 234 3.6 22:06:26 10° ESE 22:12:55 66° NNE 22:19:25 10° WNW
Cosmos 1633 4.0 22:12:09 19° ESE 22:13:02 21° E 22:15:43 10° NE
Cosmos 1697 Rocket 4.1 22:12:17 10° NW 22:17:03 29° WSW 22:21:16 12° SSW
Cosmos 1980 Rocket 2.6 22:11:34 10° NW 22:17:07 54° WSW 22:20:52 20° S
SL-16 R/B 2.8 22:11:39 10° NNW 22:17:12 50° NE 22:21:23 17° SE
Cosmos 1486 Rocket 4.0 22:12:33 10° NNW 22:17:48 77° ENE 22:21:05 23° SSE
Cosmos 1992 Rocket 4.2 22:15:18 21° S 22:18:42 54° ESE 22:23:48 10° NNE
X-37B 2.8 22:17:44 10° WSW 22:18:13 12° SW 22:18:13 12° SW
Cosmos 1812 Rocket 4.4 22:15:34 10° N 22:19:47 39° ENE 22:22:08 22° SE
Cosmos 1932 4.5 22:14:16 10° SSW 22:20:23 64° ESE 22:26:40 10° NE
Cosmos 2369 4.4 22:15:14 10° NW 22:20:42 46° WSW 22:24:30 19° S
Cosmos 2219 Rocket 4.5 22:16:50 10° N 22:20:43 18° NE 22:24:35 10° E
TIMED 4.5 22:21:54 15° SSW 22:25:26 86° WNW 22:29:50 10° NNE
COSMOS 2406 3.8 22:21:51 10° SW 22:27:33 59° WNW 22:33:15 10° NNE
Cosmos-2242 3.9 22:25:09 10° N 22:29:09 38° ENE 22:31:12 23° SE
ATLAS 5 CENTAUR R/B 1.3 22:29:23 27° SSW 22:31:12 54° SE 22:35:17 10° NE
Cosmos 1869 3.2 22:29:27 10° N 22:33:22 89° W 22:35:09 31° S
Cosmos 807 4.4 22:30:38 10° N 22:33:41 54° ENE 22:34:24 40° SE
Cosmos 1602 Rocket 4.0 22:32:12 28° SSE 22:34:02 46° E 22:38:10 10° NNE
In-Cosmos 22 Rocket 4.1 22:30:23 20° S 22:34:23 88° E 22:39:50 10° NNE
ERS-2 4.3 22:35:37 10° ENE 22:37:13 13° E 22:37:40 12° E
Terra 3.7 22:35:25 10° SW 22:39:10 23° W 22:42:56 10° NW
Meteor 1-27 4.3 22:33:36 10° NNW 22:39:10 75° W 22:42:35 24° S
FALCON 9 DEB 3.1 22:38:24 10° WNW 22:41:38 56° SSW 22:42:17 45° SSE
ALOS 2 3.2 22:39:48 24° SE 22:42:04 46° ENE 22:46:18 10° N
ASTEX 1 3.9 22:37:14 10° N 22:42:09 59° W 22:45:50 18° SSW
Cosmos 1833 Rocket 4.5 22:38:46 10° WSW 22:43:44 31° NW 22:48:44 10° NNE
Cosmos 1354 Rocket 4.2 22:40:43 10° NNW 22:46:02 67° ENE 22:49:06 25° SE
BREEZE-M DEB (TANK) 3.5 22:44:47 10° W 22:47:50 86° SSW 22:59:02 10° ESE
SL-8 Rocket 4.5 22:42:40 10° NNW 22:48:44 55° W 22:53:01 20° SSW
Cosmos 2058 Rocket 4.4 22:45:54 10° NNW 22:49:52 33° W 22:52:35 17° SW
ADEOS Rocket 3.7 22:45:43 21° SE 22:50:53 68° ENE 22:58:35 10° N
Cosmos 1825 2.4 22:49:40 28° SSW 22:51:29 65° WNW 22:55:14 10° N
Cosmos 1408 4.2 22:50:12 13° SW 22:52:41 27° WNW 22:55:42 10° NNW
Cosmos 2322 Rocket 2.4 22:47:04 10° NNW 22:52:45 66° ENE 22:56:24 22° SE
Cosmos 1503 Rocket 4.0 22:50:29 10° NNW 22:55:49 87° WSW 22:58:35 29° SSE
Cosmos 1626 Rocket 3.7 22:54:43 26° SSW 22:57:05 71° W 23:01:28 10° N
USA 276 2.1 23:00:00 10° W 23:02:50 54° SW 23:02:50 54° SW
Cosmos 2278 4.5 22:58:02 10° NW 23:03:21 41° WSW 23:06:17 24° SSW
Cosmos 1777 Rocket 4.3 22:58:34 10° NNW 23:03:51 63° ENE 23:06:53 25° SE
Cosmos 2333 Rocket 3.3 23:02:26 10° NNW 23:07:51 39° NE 23:12:52 12° ESE
Cosmos 1825 Rocket 4.0 23:08:17 32° SE 23:09:49 47° E 23:13:59 10° NNE
SJ 16-02 1.3 23:05:58 10° NNW 23:10:26 85° ENE 23:12:19 34° SSE
Gbstr 26 Del rocket 3.9 23:11:08 30° SE 23:11:10 30° SE 23:15:29 10° ENE
Cosmos 1340 Rocket 3.8 23:13:04 28° ESE 23:14:04 32° E 23:17:37 10° NNE
Cosmos 2082 Rocket 3.6 23:12:14 10° WSW 23:17:31 38° NW 23:22:50 10° NNE
Meteor 2-20 4.4 23:13:52 26° S 23:17:32 89° W 23:23:39 10° N
H-2A R/B 3.4 23:15:04 10° NNE 23:19:18 79° ESE 23:20:55 37° S
USA 267 3.2 23:14:08 10° ENE 23:20:43 84° SSE 23:27:16 10° SW
Cosmos 2221 3.5 23:22:10 10° N 23:26:16 39° ENE 23:28:18 24° SE
Cosmos 1606 2.7 23:23:14 10° NNW 23:27:06 73° W 23:28:16 42° S
Cosmos 2058 3.0 23:26:08 39° SSE 23:27:33 66° E 23:31:44 10° NNE
Cosmos 2360 Rocket 2.2 23:22:56 10° NNW 23:28:39 79° ENE 23:31:59 26° SE
Cosmos 1934 Rocket 4.0 23:23:32 10° N 23:29:38 71° ENE 23:33:06 27° SSE
Meteor 2-2 Rocket 4.4 23:35:20 10° NNW 23:41:22 86° W 23:44:36 30° S
Cosmos 44 3.7 23:41:21 34° SSE 23:42:24 39° ESE 23:46:35 10° NE
Cosmos 2237 4.4 23:38:39 10° NW 23:44:16 57° WSW 23:46:53 31° S
Meteor 2-20 Rocket 4.5 23:42:26 27° SSW 23:45:58 77° W 23:52:07 10° N
Cosmos 1633 4.1 23:45:56 20° WSW 23:47:23 27° WNW 23:50:24 10° NNW
Cosmos 1758 Rocket 4.4 23:45:44 24° SW 23:47:55 43° WNW 23:52:09 10° N
Cosmos 2237 Rocket 4.4 23:48:22 10° N 23:52:45 22° NE 23:57:06 10° E
Cosmos 1339 Rocket 4.5 23:50:04 29° S 23:53:23 74° E 23:59:31 10° NNE
